1486047600.26,51603,8.94,73080.3,-5.49,-6.93,-6.93,0,*59
1486047601.48,51604,8.94,73072.8,-5.45,-6.69,-6.69,0,*52
1486047602.7,51605,8.94,73080.0,-5.45,-6.77,-6.77,0,*53
1486047603.92,51606,8.94,73082.3,-5.45,-6.69,-6.77,0,*5F
1486047605.14,51607,8.94,73082.0,-5.49,-6.73,-6.69,0,*56
1486047606.37,51608,8.94,73090.8,-5.49,-6.85,-6.81,0,*56
1486047607.59,51609,8.94,73090.8,-5.49,-6.73,-6.69,0,*58
1486047608.83,51610,8.94,73088.8,-5.45,-6.63,-6.55,0,*52
1486047610.07,51611,8.94,73088.0,-5.45,-6.63,-6.69,0,*5C
1486047611.3,51612,8.94,73076.0,-5.45,-6.55,-6.55,0,*55
1486047612.57,51613,8.94,73078.5,-5.45,-6.63,-6.63,0,*54
1486047613.8,51614,8.94,73080.0,-5.45,-6.55,-6.55,0,*53
1486047615.03,51615,8.94,73082.8,-5.45,-6.43,-6.43,0,*52
1486047616.26,51616,8.94,73062.0,-5.45,-6.43,-6.43,0,*51
1486047617.48,51617,8.94,73062.8,-5.45,-6.39,-6.31,0,*58
1486047618.71,51618,8.94,73066.5,-5.49,-6.55,-6.55,0,*53
1486047619.93,51619,8.94,73046.0,-5.49,-6.47,-6.55,0,*51
1486047621.15,51620,8.94,73056.3,-5.49,-6.55,-6.47,0,*5B
1486047622.39,51621,8.94,73078.3,-5.45,-6.63,-6.69,0,*5F
1486047623.62,51622,8.94,73070.5,-5.45,-6.55,-6.55,0,*56
1486047624.84,51623,8.94,73062.5,-5.49,-6.69,-6.69,0,*5B
1486047626.05,51624,8.94,73050.3,-5.49,-6.69,-6.73,0,*57
1486047627.3,51625,8.94,73046.0,-5.45,-6.63,-6.55,0,*54
1486047628.52,51626,8.94,73064.3,-5.45,-6.69,-6.69,0,*52
1486047629.73,51627,8.94,73082.8,-5.45,-6.69,-6.69,0,*53
1486047630.96,51628,8.94,73082.5,-5.49,-6.81,-6.73,0,*5D
1486047632.2,51629,8.94,73076.5,-5.45,-6.63,-6.55,0,*58
1486047633.42,51630,8.94,73072.8,-5.49,-6.73,-6.69,0,*52
1486047634.65,51631,8.94,73078.0,-5.49,-6.59,-6.55,0,*54
1486047635.88,51632,8.94,73072.5,-5.45,-6.55,-6.51,0,*53
1486047637.12,51633,8.94,73070.5,-5.45,-6.69,-6.63,0,*5C
1486047638.35,51634,8.94,73068.3,-5.49,-6.55,-6.55,0,*5D
1486047639.56,51635,8.94,73068.3,-5.49,-6.69,-6.69,0,*5C
1486047640.79,51636,8.94,73072.8,-5.45,-6.77,-6.77,0,*53
1486047642.04,51637,8.94,73068.0,-5.45,-6.63,-6.55,0,*57
1486047643.26,51638,8.94,73078.0,-5.49,-6.59,-6.47,0,*5E
1486047644.49,51639,8.94,73068.0,-5.45,-6.43,-6.51,0,*5F
1486047645.71,51640,8.88,73060.3,-5.49,-6.43,-6.47,0,*5A
1486047646.95,51641,8.94,73058.5,-5.45,-6.51,-6.51,0,*53
1486047648.17,51642,8.94,73054.8,-5.49,-6.55,-6.47,0,*5F
1486047649.39,51643,8.94,73050.0,-5.49,-6.69,-6.69,0,*5D
1486047650.61,51644,8.94,73056.5,-5.49,-6.55,-6.55,0,*5A
1486047651.84,51645,8.94,73066.3,-5.49,-6.81,-6.73,0,*56
1486047653.06,51646,8.94,73064.0,-5.45,-6.81,-6.77,0,*5D
1486047654.32,51647,8.94,73066.3,-5.45,-6.93,-6.81,0,*56
1486047655.54,51648,8.94,73058.0,-5.45,-6.69,-6.69,0,*5A
1486047656.77,51649,8.94,73064.8,-5.45,-6.77,-6.77,0,*5B
1486047658.0,51650,8.94,73062.5,-5.49,-6.81,-6.81,0,*5F
1486047659.23,51651,8.94,73078.0,-5.45,-6.81,-6.81,0,*52
1486047660.47,51652,8.94,73076.0,-5.49,-6.81,-6.81,0,*5D
1486047661.68,51653,8.94,73074.3,-5.49,-6.73,-6.69,0,*57
1486047662.91,51654,8.94,73072.8,-5.49,-6.81,-6.73,0,*56
1486047664.14,51655,8.94,73078.8,-5.49,-6.81,-6.81,0,*5A
1486047665.39,51656,8.94,73080.3,-5.49,-6.93,-6.85,0,*5E
1486047666.62,51657,8.94,73082.3,-5.45,-6.77,-6.81,0,*5D
1486047667.82,51658,8.94,73082.3,-5.51,-6.85,-6.85,0,*5E
1486047669.01,51659,8.94,73082.8,-5.51,-6.73,-6.73,0,*5F
1486047670.26,51660,8.94,73086.0,-5.51,-6.93,-6.93,0,*55
1486047671.46,51661,8.94,73080.3,-5.51,-6.85,-6.85,0,*54
1486047672.66,51662,8.94,73080.0,-5.51,-6.59,-6.69,0,*54
1486047673.86,51663,8.94,73078.3,-5.51,-6.73,-6.59,0,*5E
1486047675.07,51664,8.94,73082.8,-5.49,-6.59,-6.69,0,*5B
1486047676.3,51665,8.94,73086.3,-5.49,-6.85,-6.81,0,*5D
1486047677.55,51666,8.94,73086.3,-5.51,-6.97,-6.93,0,*57
1486047678.78,51667,8.94,73084.3,-5.51,-6.97,-6.85,0,*51
1486047679.98,51668,8.94,73084.3,-5.51,-6.85,-6.81,0,*59
1486047681.18,51669,8.88,73076.5,-5.51,-6.85,-6.89,0,*50
1486047682.38,51670,8.94,73076.8,-5.51,-6.81,-6.81,0,*54
1486047683.6,51671,8.88,73074.0,-5.49,-6.73,-6.69,0,*57
1486047684.79,51672,8.94,73076.0,-5.51,-6.69,-6.69,0,*56
1486047685.99,51673,8.94,73076.5,-5.51,-6.85,-6.85,0,*57
1486047687.19,51674,8.94,73080.0,-5.51,-6.81,-6.73,0,*5D
1486047688.38,51675,8.88,73078.3,-5.51,-6.73,-6.69,0,*5A
1486047689.59,51676,8.94,73078.0,-5.51,-6.81,-6.81,0,*52
1486047690.81,51677,8.94,73078.3,-5.53,-6.77,-6.77,0,*51
1486047692.01,51678,8.94,73074.3,-5.51,-6.85,-6.85,0,*5C
1486047693.21,51679,8.88,73072.5,-5.51,-6.81,-6.73,0,*50
1486047694.44,51680,8.88,73072.5,-5.53,-6.77,-6.73,0,*5D
1486047695.63,51681,8.88,73078.0,-5.51,-6.69,-6.59,0,*59
1486047696.86,51682,8.88,73080.3,-5.53,-6.89,-6.89,0,*5B
1486047698.08,51683,8.94,73080.3,-5.53,-6.85,-6.77,0,*57
1486047699.28,51684,8.94,73080.5,-5.51,-6.59,-6.59,0,*5F
1486047700.53,51685,8.94,73078.3,-5.53,-6.73,-6.63,0,*5D
1486047701.81,51686,8.94,73078.8,-5.53,-6.63,-6.63,0,*5F
1486047703.0,51687,8.94,73084.5,-5.51,-6.81,-6.73,0,*51
1486047704.23,51688,8.94,73086.3,-5.53,-6.85,-6.85,0,*51
1486047705.48,51689,8.94,73088.0,-5.53,-7.01,-6.89,0,*51
1486047706.7,51690,8.88,73090.3,-5.53,-6.89,-6.85,0,*54
1486047707.98,51691,8.94,73096.0,-5.53,-7.01,-6.97,0,*57
1486047709.25,51692,8.94,73088.8,-5.53,-7.05,-6.97,0,*50
1486047710.49,51693,8.94,73092.5,-5.53,-7.11,-7.11,0,*5B
1486047711.73,51694,8.94,73090.0,-5.53,-7.01,-6.89,0,*5D
1486047713.01,51695,8.94,73086.5,-5.53,-6.97,-7.01,0,*53
1486047714.25,51696,8.94,73082.8,-5.53,-7.11,-7.11,0,*5E
1486047715.45,51697,8.94,73086.3,-5.55,-7.11,-7.11,0,*59
1486047716.7,51698,8.94,73086.8,-5.55,-6.97,-7.01,0,*58
1486047717.92,51699,8.94,73086.8,-5.55,-6.93,-6.89,0,*5C
1486047719.12,51700,8.94,73090.0,-5.55,-6.73,-6.77,0,*52
1486047720.34,51701,8.88,73086.8,-5.55,-6.73,-6.63,0,*56
1486047721.53,51702,8.94,73080.5,-5.55,-6.85,-6.73,0,*5D
1486047722.8,51703,8.94,73084.0,-5.57,-6.63,-6.63,0,*57
1486047724.0,51704,8.94,73082.3,-5.55,-6.59,-6.51,0,*5A
1486047725.22,51705,8.94,73086.8,-5.55,-6.77,-6.63,0,*56
1486047726.45,51706,8.94,73086.8,-5.57,-6.77,-6.77,0,*52
1486047727.67,51707,8.94,73086.0,-5.55,-6.63,-6.51,0,*50
1486047728.9,51708,8.94,73084.8,-5.57,-6.81,-6.81,0,*5C
1486047730.12,51709,8.88,73080.8,-5.57,-6.81,-6.89,0,*55
1486047731.35,51710,8.94,73084.8,-5.57,-6.81,-6.81,0,*55
1486047732.57,51711,8.94,73086.3,-5.57,-6.69,-6.77,0,*5B
1486047733.82,51712,8.94,73086.5,-5.57,-6.55,-6.63,0,*52
1486047735.07,51713,8.94,73086.3,-5.57,-6.63,-6.55,0,*53
1486047736.31,51714,8.94,73092.8,-5.57,-6.63,-6.55,0,*54
1486047737.54,51715,8.94,73094.3,-5.57,-6.51,-6.51,0,*50
1486047738.77,51716,8.88,73082.3,-5.61,-6.55,-6.55,0,*56
1486047740.0,51717,8.94,73084.3,-5.61,-6.55,-6.47,0,*54
1486047741.22,51718,8.88,73076.3,-5.57,-6.43,-6.43,0,*5D
1486047742.44,51719,8.94,73084.0,-5.57,-6.39,-6.39,0,*5C
1486047743.66,51720,8.94,73084.5,-5.57,-6.39,-6.39,0,*56
1486047744.88,51721,8.94,73080.8,-5.57,-6.55,-6.51,0,*53
1486047746.11,51722,8.94,73076.5,-5.57,-6.39,-6.35,0,*58
1486047747.33,51723,8.94,73076.0,-5.57,-6.35,-6.39,0,*59
1486047748.55,51724,8.94,73076.5,-5.57,-6.39,-6.43,0,*5F
1486047749.75,51725,8.94,73078.5,-5.55,-6.39,-6.47,0,*58
1486047750.98,51726,8.94,73078.0,-5.57,-6.51,-6.51,0,*50
1486047752.17,51727,8.88,73080.3,-5.55,-6.47,-6.43,0,*57
1486047753.37,51728,8.88,73080.0,-5.55,-6.47,-6.47,0,*5C
1486047754.6,51729,8.88,73080.5,-5.57,-6.51,-6.43,0,*5C
1486047755.83,51730,8.94,73080.0,-5.57,-6.43,-6.51,0,*54
1486047757.02,51731,8.94,73082.3,-5.55,-6.47,-6.47,0,*54
1486047758.22,51732,8.94,73084.5,-5.55,-6.51,-6.51,0,*57
1486047759.45,51733,8.94,73082.8,-5.57,-6.51,-6.55,0,*50
1486047760.68,51734,8.94,73078.0,-5.57,-6.51,-6.51,0,*53
1486047761.88,51735,8.94,73076.8,-5.55,-6.51,-6.59,0,*58
1486047763.11,51736,8.94,73074.5,-5.57,-6.43,-6.43,0,*51
1486047764.31,51737,8.94,73080.0,-5.55,-6.59,-6.59,0,*52
1486047765.5,51738,8.94,73090.3,-5.55,-6.73,-6.73,0,*5D
1486047766.73,51739,8.94,73094.8,-5.55,-6.97,-6.89,0,*53
1486047767.95,51740,8.94,73092.8,-5.57,-6.89,-6.77,0,*51
1486047769.17,51741,8.94,73098.3,-5.57,-6.77,-6.77,0,*51
1486047770.37,51742,8.94,73104.5,-5.55,-6.85,-6.77,0,*5D
1486047771.61,51743,8.94,73110.5,-5.57,-7.01,-6.89,0,*52
1486047772.89,51744,8.94,73108.0,-5.61,-7.05,-6.93,0,*5F
1486047774.16,51745,8.94,73112.0,-5.57,-7.01,-6.93,0,*5F
1486047775.4,51746,8.94,73106.0,-5.57,-6.63,-6.55,0,*53
1486047776.63,51747,8.94,73096.3,-5.57,-6.51,-6.43,0,*54
1486047777.86,51748,8.94,73090.5,-5.57,-6.51,-6.43,0,*5B
1486047779.09,51749,8.88,73080.3,-5.57,-6.43,-6.35,0,*58
1486047780.31,51750,8.94,73076.8,-5.57,-6.35,-6.39,0,*5D
1486047781.53,51751,8.94,73064.0,-5.57,-6.39,-6.39,0,*50
1486047782.75,51752,8.94,73060.5,-5.57,-6.43,-6.43,0,*53
1486047783.98,51753,8.94,73064.8,-5.57,-6.89,-6.89,0,*52
1486047785.21,51754,8.94,73068.5,-5.61,-7.19,-7.11,0,*58
1486047786.49,51755,8.94,73072.0,-5.61,-6.97,-6.93,0,*55
1486047787.69,51756,8.88,73070.5,-5.63,-6.85,-6.81,0,*54
1486047788.91,51757,8.94,73068.0,-5.61,-6.69,-6.73,0,*58
1486047790.15,51758,8.94,73068.0,-5.61,-6.73,-6.81,0,*51
1486047791.35,51759,8.94,73070.8,-5.63,-6.55,-6.55,0,*5F
1486047792.58,51760,8.94,73074.3,-5.61,-6.55,-6.47,0,*54
1486047793.8,51761,8.94,73062.5,-5.57,-6.43,-6.39,0,*5E
1486047795.05,51762,8.94,73066.0,-5.61,-6.31,-6.27,0,*52
1486047796.32,51763,8.94,73066.3,-5.61,-6.27,-6.27,0,*54
1486047797.57,51764,8.94,73064.3,-5.61,-6.13,-6.19,0,*59
1486047798.83,51765,8.94,73062.5,-5.61,-6.19,-6.13,0,*58
1486047800.1,51766,8.94,73056.5,-5.61,-6.19,-6.27,0,*5C
1486047801.38,51767,8.94,73068.5,-5.61,-6.27,-6.19,0,*5D
1486047802.61,51768,8.88,73072.5,-5.61,-6.43,-6.43,0,*5F
1486047803.83,51769,8.88,73064.3,-5.57,-6.43,-6.43,0,*5B
1486047805.05,51770,8.94,73042.3,-5.57,-6.39,-6.35,0,*5F
1486047806.28,51771,8.94,73032.0,-5.57,-6.35,-6.35,0,*52
1486047807.51,51772,8.88,73050.8,-5.57,-6.43,-6.51,0,*52
1486047808.71,51773,8.94,73048.8,-5.55,-6.51,-6.47,0,*55
1486047809.94,51774,8.94,73058.8,-5.57,-6.35,-6.35,0,*57
1486047811.14,51775,8.94,73066.3,-5.55,-6.35,-6.35,0,*54
1486047812.34,51776,8.94,73076.8,-5.55,-6.35,-6.35,0,*57
1486047813.56,51777,8.94,73078.8,-5.57,-6.39,-6.43,0,*59
1486047814.83,51778,8.94,73072.5,-5.57,-6.23,-6.23,0,*5B
1486047816.02,51779,8.94,73062.0,-5.55,-6.05,-6.05,0,*58
1486047817.25,51780,8.94,73058.0,-5.55,-6.09,-6.19,0,*5F
1486047818.49,51781,8.94,73054.5,-5.57,-6.13,-6.23,0,*5E
1486047819.68,51782,8.94,73054.3,-5.55,-6.05,-6.09,0,*50
1486047820.88,51783,8.94,73054.8,-5.55,-6.09,-6.09,0,*5D
1486047822.07,51784,8.94,73054.5,-5.55,-6.09,-6.05,0,*56
1486047823.3,51785,8.94,73062.3,-5.55,-6.19,-6.09,0,*5A
1486047824.52,51786,8.94,73070.5,-5.53,-6.39,-6.39,0,*5E
1486047825.74,51787,8.94,73080.5,-5.53,-6.39,-6.39,0,*5F
1486047826.97,51788,8.94,73078.5,-5.53,-6.35,-6.35,0,*50
1486047828.19,51789,8.94,73084.3,-5.53,-6.47,-6.39,0,*58
1486047829.4,51790,8.94,73086.0,-5.51,-6.35,-6.47,0,*5E
1486047830.62,51791,8.88,73080.5,-5.53,-6.39,-6.39,0,*58
1486047831.84,51792,8.94,73084.8,-5.53,-6.47,-6.47,0,*5B
1486047833.04,51793,8.94,73084.8,-5.51,-6.59,-6.59,0,*58
1486047834.27,51794,8.94,73076.8,-5.53,-6.39,-6.39,0,*5D
1486047835.5,51795,8.94,73082.3,-5.53,-6.35,-6.35,0,*5C
1486047836.75,51796,8.88,73084.5,-5.53,-6.59,-6.63,0,*56
1486047838.0,51797,8.94,73086.0,-5.53,-6.73,-6.63,0,*5F
1486047839.23,51798,8.94,73080.5,-5.53,-6.77,-6.73,0,*55
1486047840.46,51799,8.94,73082.8,-5.53,-6.51,-6.51,0,*50
1486047841.69,51800,8.94,73084.3,-5.53,-6.51,-6.47,0,*58
1486047842.89,51801,8.94,73082.5,-5.51,-6.55,-6.47,0,*5F
1486047844.12,51802,8.94,73080.5,-5.53,-6.59,-6.59,0,*5D
1486047845.35,51803,8.94,73076.5,-5.53,-6.51,-6.59,0,*54
1486047846.58,51804,8.94,73072.8,-5.53,-6.47,-6.47,0,*5B
1486047847.8,51805,8.94,73080.3,-5.53,-6.47,-6.47,0,*5A
1486047849.0,51806,8.94,73078.5,-5.55,-6.73,-6.73,0,*5F
1486047850.24,51807,8.94,73082.5,-5.55,-6.63,-6.63,0,*5E
1486047851.44,51808,8.94,73084.3,-5.55,-6.59,-6.51,0,*59
1486047852.66,51809,8.94,73084.5,-5.55,-6.63,-6.59,0,*59
1486047853.9,51810,8.94,73090.0,-5.57,-6.69,-6.63,0,*50
1486047855.1,51811,8.94,73088.8,-5.55,-6.73,-6.59,0,*51
1486047856.3,51812,8.94,73086.5,-5.55,-6.59,-6.51,0,*52
1486047857.5,51813,8.94,73084.5,-5.55,-6.51,-6.47,0,*5C
1486047858.7,51814,8.94,73082.8,-5.55,-6.59,-6.51,0,*54
1486047859.94,51815,8.94,73076.3,-5.55,-6.63,-6.63,0,*5D
1486047861.14,51816,8.94,73080.8,-5.55,-6.51,-6.47,0,*59
1486047862.34,51817,8.94,73078.5,-5.55,-6.47,-6.47,0,*5F
1486047863.54,51818,8.94,73072.8,-5.55,-6.59,-6.47,0,*5F
1486047864.73,51819,8.94,73074.5,-5.55,-6.39,-6.47,0,*58
1486047865.93,51820,8.94,73070.8,-5.55,-6.47,-6.47,0,*5B
1486047867.13,51821,8.94,73074.0,-5.55,-6.59,-6.59,0,*5A
1486047868.33,51822,8.94,73078.5,-5.55,-6.51,-6.59,0,*51
1486047869.53,51823,8.94,73072.8,-5.55,-6.51,-6.51,0,*58
1486047870.73,51824,8.94,73072.3,-5.55,-6.59,-6.51,0,*57
1486047871.95,51825,8.94,73080.3,-5.55,-6.63,-6.59,0,*57
1486047873.17,51826,8.94,73076.3,-5.53,-6.73,-6.73,0,*5B
1486047874.4,51827,8.94,73076.8,-5.53,-6.73,-6.73,0,*5A
1486047875.63,51828,8.94,73080.0,-5.57,-6.81,-6.81,0,*51
1486047876.84,51829,8.88,73076.0,-5.55,-6.63,-6.59,0,*5B
1486047878.07,51830,8.94,73080.8,-5.57,-6.55,-6.55,0,*58
1486047879.27,51831,8.94,73080.8,-5.55,-6.89,-6.85,0,*57
1486047880.46,51832,8.94,73082.8,-5.55,-6.89,-6.85,0,*54
1486047881.72,51833,8.94,73084.3,-5.57,-7.05,-7.05,0,*5B
1486047882.97,51834,8.94,73082.0,-5.55,-6.97,-6.97,0,*5E
1486047884.2,51835,8.94,73082.0,-5.57,-7.15,-7.15,0,*5D
1486047885.44,51836,8.94,73080.5,-5.57,-7.15,-7.05,0,*5F
1486047886.67,51837,8.94,73082.5,-5.57,-6.89,-6.81,0,*57
1486047887.89,51838,8.94,73076.8,-5.57,-6.89,-6.89,0,*50
1486047889.11,51839,8.94,73080.3,-5.57,-6.89,-6.89,0,*51
1486047890.32,51840,8.94,73076.0,-5.57,-6.69,-6.69,0,*5F
1486047891.57,51841,8.94,73074.3,-5.57,-6.63,-6.55,0,*5B
1486047892.79,51842,8.94,73078.0,-5.61,-6.59,-6.69,0,*5B
1486047894.02,51843,8.94,73080.5,-5.61,-6.59,-6.59,0,*59
1486047895.24,51844,8.94,73080.0,-5.61,-6.59,-6.69,0,*5D
1486047896.46,51845,8.94,73078.8,-5.61,-6.69,-6.69,0,*5F
1486047897.68,51846,8.94,73076.8,-5.61,-6.73,-6.69,0,*57
1486047898.9,51847,8.94,73086.3,-5.61,-6.69,-6.59,0,*5E
1486047900.13,51848,8.94,73084.5,-5.61,-6.81,-6.69,0,*54
1486047901.36,51849,8.94,73084.8,-5.61,-6.81,-6.69,0,*55
1486047902.55,51850,8.94,73084.3,-5.63,-6.69,-6.59,0,*5A
1486047903.78,51851,8.94,73080.3,-5.61,-6.59,-6.55,0,*56
1486047905.01,51852,8.94,73062.5,-5.61,-6.47,-6.47,0,*59
1486047906.23,51853,8.88,73054.8,-5.61,-6.55,-6.55,0,*58
1486047907.46,51854,8.94,73064.8,-5.61,-6.55,-6.55,0,*5F
1486047908.69,51855,8.94,73068.3,-5.61,-6.55,-6.59,0,*52
1486047909.92,51856,8.94,73068.0,-5.61,-6.47,-6.47,0,*5D
1486047911.15,51857,8.94,73072.8,-5.61,-6.59,-6.59,0,*5C
1486047912.38,51858,8.94,73072.3,-5.61,-6.59,-6.55,0,*5F
1486047913.6,51859,8.94,73072.3,-5.61,-6.55,-6.47,0,*51
1486047914.83,51860,8.94,73074.3,-5.61,-6.55,-6.55,0,*58
1486047916.06,51861,8.94,73078.3,-5.61,-6.59,-6.55,0,*55
1486047917.28,51862,8.94,73064.5,-5.61,-6.69,-6.69,0,*5A
1486047918.51,51863,8.94,73062.5,-5.61,-6.81,-6.73,0,*56
1486047919.73,51864,8.94,73064.8,-5.61,-6.73,-6.73,0,*5C
1486047920.96,51865,8.94,73064.3,-5.61,-6.59,-6.59,0,*5D
1486047922.19,51866,8.94,73074.5,-5.61,-6.55,-6.55,0,*5E
1486047923.38,51867,8.94,73080.0,-5.63,-6.69,-6.73,0,*56
1486047924.6,51868,8.94,73094.5,-5.61,-6.59,-6.69,0,*53
1486047925.84,51869,8.94,73096.5,-5.61,-6.73,-6.81,0,*5C
1486047927.08,51870,8.88,73084.8,-5.61,-6.85,-6.93,0,*5E
1486047928.33,51871,8.88,73072.0,-5.61,-6.85,-7.05,0,*51
1486047929.6,51872,8.94,73086.5,-5.61,-6.93,-7.05,0,*55
1486047930.85,51873,8.94,73082.0,-5.61,-7.05,-7.19,0,*57
1486047932.06,51874,8.94,73082.5,-5.63,-7.19,-7.23,0,*56
1486047933.29,51875,8.94,73080.3,-5.63,-7.19,-7.31,0,*54
1486047934.53,51876,8.94,73078.8,-5.63,-7.05,-7.05,0,*5D
1486047935.75,51877,8.94,73064.3,-5.63,-7.19,-7.05,0,*51
1486047936.99,51878,8.94,73064.5,-5.63,-6.97,-7.05,0,*59
1486047938.27,51879,8.94,73068.3,-5.61,-6.93,-6.93,0,*50
1486047939.52,51880,8.94,73070.8,-5.63,-6.93,-6.97,0,*50
1486047940.74,51881,8.94,73074.0,-5.63,-6.85,-6.97,0,*56
1486047941.99,51882,8.94,73072.8,-5.63,-6.93,-7.05,0,*58
1486047943.22,51883,8.94,73068.8,-5.63,-6.81,-6.93,0,*54
1486047944.47,51884,8.94,73062.0,-5.63,-6.93,-6.97,0,*54
1486047945.69,51885,8.94,73066.0,-5.63,-6.85,-6.97,0,*52
1486047946.93,51886,8.94,73068.8,-5.63,-6.93,-7.05,0,*5C
1486047948.18,51887,8.94,73068.5,-5.63,-7.05,-7.05,0,*53
1486047949.38,51888,8.94,73066.0,-5.63,-7.11,-7.19,0,*54
1486047950.58,51889,8.94,73072.0,-5.63,-7.23,-7.19,0,*54
1486047951.8,51890,8.94,73074.5,-5.63,-7.49,-7.39,0,*52
1486047953.08,51891,8.94,73076.5,-5.65,-7.57,-7.43,0,*57
1486047954.31,51892,8.94,73080.0,-5.63,-7.73,-7.53,0,*55
1486047955.56,51893,8.94,73074.5,-5.63,-7.73,-7.35,0,*54
1486047956.82,51894,8.94,73074.8,-5.63,-7.73,-7.39,0,*5F
1486047958.07,51895,8.94,73076.8,-5.63,-7.73,-7.35,0,*52
1486047959.32,51896,8.94,73086.8,-5.61,-7.77,-7.23,0,*50
1486047960.57,51897,8.94,73084.5,-5.65,-7.83,-7.27,0,*5A
1486047961.8,51898,8.94,73084.8,-5.63,-7.91,-7.23,0,*54
1486047963.02,51899,8.94,73086.5,-5.63,-8.03,-7.23,0,*51
1486047964.24,51900,8.94,73084.5,-5.63,-8.03,-7.23,0,*50
1486047965.47,51901,8.94,73092.0,-5.63,-8.03,-7.11,0,*50
1486047966.7,51902,8.94,73094.3,-5.63,-8.03,-7.05,0,*56
1486047967.95,51903,8.94,73094.0,-5.63,-8.03,-6.97,0,*5D
1486047969.17,51904,8.94,73094.8,-5.63,-7.99,-6.85,0,*55
1486047970.4,51905,8.94,73086.3,-5.63,-7.91,-6.81,0,*58
1486047971.62,51906,8.94,73074.5,-5.63,-7.61,-6.59,0,*51
1486047972.84,51907,8.94,73072.8,-5.63,-7.39,-6.55,0,*51
1486047974.07,51908,8.94,73074.0,-5.63,-7.35,-6.55,0,*52
1486047975.29,51909,8.94,73072.0,-5.63,-7.31,-6.47,0,*54
1486047976.52,51910,8.94,73078.3,-5.63,-7.05,-6.47,0,*5B
1486047977.72,51911,8.94,73078.0,-5.63,-7.11,-6.47,0,*5F
1486047978.95,51912,8.94,73068.3,-5.61,-6.85,-6.47,0,*52
1486047980.18,51913,8.94,73072.3,-5.63,-6.93,-6.43,0,*52
1486047981.38,51914,8.94,73074.8,-5.63,-6.85,-6.43,0,*52
1486047982.58,51915,8.94,73076.3,-5.63,-6.73,-6.47,0,*5E
1486047983.78,51916,8.94,73080.0,-5.63,-6.73,-6.47,0,*5D
1486047984.98,51917,8.94,73070.3,-5.63,-6.59,-6.47,0,*54
1486047986.18,51918,8.94,73074.3,-5.63,-6.39,-6.31,0,*5C
1486047987.4,51919,8.94,73076.0,-5.61,-6.43,-6.39,0,*5A
1486047988.61,51920,8.94,73078.5,-5.63,-6.43,-6.43,0,*5F
1486047989.81,51921,8.94,73070.3,-5.63,-6.43,-6.43,0,*5E
1486047991.01,51922,8.94,73074.3,-5.63,-6.47,-6.47,0,*5D
1486047992.23,51923,8.94,73078.5,-5.61,-6.39,-6.43,0,*53
1486047993.43,51924,8.94,73074.3,-5.63,-6.43,-6.43,0,*5B
1486047994.64,51925,8.94,73078.8,-5.63,-6.31,-6.31,0,*5A
1486047995.87,51926,8.94,73076.0,-5.61,-6.43,-6.47,0,*5F
1486047997.07,51927,8.94,73076.5,-5.63,-6.55,-6.55,0,*58
1486047998.27,51928,8.94,73072.3,-5.63,-6.55,-6.55,0,*57
1486047999.5,51929,8.94,73072.8,-5.61,-6.47,-6.47,0,*54
1486048000.7,51930,8.94,73072.0,-5.63,-6.43,-6.47,0,*5A
1486048001.89,51931,8.94,73076.8,-5.63,-6.59,-6.69,0,*5C
1486048003.1,51932,8.94,73080.0,-5.63,-6.59,-6.55,0,*50
1486048004.37,51933,8.94,73076.0,-5.61,-6.27,-6.19,0,*52
1486048005.61,51934,8.94,73080.8,-5.63,-6.27,-6.27,0,*5A
1486048006.84,51935,8.94,73080.8,-5.61,-6.43,-6.43,0,*59
1486048008.07,51936,8.94,73082.0,-5.61,-6.43,-6.43,0,*5A
1486048009.3,51937,8.94,73078.5,-5.61,-6.47,-6.47,0,*5B
1486048010.54,51938,8.94,73078.8,-5.63,-6.27,-6.19,0,*5B
1486048011.79,51939,8.94,73074.5,-5.63,-6.27,-6.27,0,*57
1486048013.04,51940,8.94,73072.3,-5.63,-6.19,-6.27,0,*54
1486048014.32,51941,8.94,73070.0,-5.61,-6.19,-6.19,0,*5A
1486048015.55,51942,8.94,73078.8,-5.61,-6.13,-6.05,0,*5E
1486048016.8,51943,8.94,73068.0,-5.61,-6.13,-6.27,0,*5F
1486048018.02,51944,8.94,73064.8,-5.61,-6.31,-6.39,0,*57
1486048019.27,51945,8.94,73056.3,-5.61,-6.19,-6.13,0,*54
1486048020.52,51946,8.94,73056.3,-5.61,-6.19,-6.13,0,*57
1486048021.8,51947,8.94,73058.8,-5.61,-6.27,-6.19,0,*51
1486048023.03,51948,8.94,73064.5,-5.61,-6.31,-6.31,0,*53
1486048024.23,51949,8.94,73070.0,-5.63,-6.31,-6.31,0,*50
1486048025.46,51950,8.94,73076.0,-5.61,-6.31,-6.31,0,*5A
1486048026.73,51951,8.94,73078.8,-5.57,-6.27,-6.27,0,*5E
1486048027.98,51952,8.94,73082.3,-5.61,-6.39,-6.27,0,*57
1486048029.21,51953,8.94,73076.0,-5.61,-6.43,-6.43,0,*59
1486048030.43,51954,8.94,73074.0,-5.57,-6.43,-6.39,0,*56
1486048031.65,51955,8.94,73064.8,-5.57,-6.39,-6.39,0,*5A
1486048032.87,51956,8.94,73068.8,-5.57,-6.35,-6.39,0,*55
1486048034.1,51957,8.94,73072.3,-5.57,-6.39,-6.35,0,*54
1486048035.3,51958,8.94,73076.5,-5.55,-6.31,-6.31,0,*55
1486048036.56,51959,8.94,73064.0,-5.57,-6.27,-6.23,0,*52
1486048037.75,51960,8.94,73056.0,-5.55,-6.05,-6.05,0,*5E
1486048039.02,51961,8.94,73070.0,-5.57,-6.27,-6.27,0,*5D
1486048040.27,51962,8.94,73068.8,-5.57,-6.27,-6.35,0,*5D
1486048041.48,51963,8.94,73062.3,-5.57,-6.39,-6.39,0,*5F
1486048042.71,51964,8.94,73060.8,-5.57,-6.43,-6.43,0,*58
1486048043.93,51965,8.94,73066.3,-5.57,-6.43,-6.43,0,*59
1486048045.14,51966,8.94,73066.3,-5.55,-6.51,-6.59,0,*50
1486048046.35,51967,8.94,73068.5,-5.57,-6.69,-6.69,0,*5B
1486048047.58,51968,8.94,73062.8,-5.57,-6.81,-6.81,0,*54
1486048048.8,51969,8.94,73076.8,-5.57,-6.69,-6.69,0,*55
1486048050.03,51970,8.94,73080.5,-5.57,-6.63,-6.69,0,*57
1486048051.25,51971,8.94,73078.8,-5.61,-6.73,-6.69,0,*52
1486048052.48,51972,8.94,73074.0,-5.61,-6.47,-6.47,0,*5A
1486048053.71,51973,8.94,73078.5,-5.61,-6.47,-6.55,0,*58
1486048054.93,51974,8.94,73080.3,-5.61,-6.59,-6.69,0,*5F
1486048056.18,51975,8.94,73084.3,-5.61,-7.11,-7.05,0,*58
1486048057.46,51976,8.94,73078.5,-5.61,-6.93,-6.97,0,*5A
1486048058.69,51977,8.94,73068.0,-5.61,-6.85,-6.81,0,*5B
1486048059.88,51978,8.94,73074.0,-5.63,-6.59,-6.69,0,*51
1486048061.09,51979,8.94,73068.8,-5.63,-6.59,-6.59,0,*53
1486048062.28,51980,8.94,73070.8,-5.63,-6.47,-6.47,0,*55
1486048063.48,51981,8.94,73068.3,-5.63,-6.47,-6.55,0,*57
1486048064.68,51982,8.94,73074.0,-5.63,-6.47,-6.47,0,*57
1486048065.89,51983,8.94,73082.3,-5.63,-6.55,-6.55,0,*56
1486048067.09,51984,8.94,73084.5,-5.63,-6.55,-6.55,0,*51
1486048068.29,51985,8.94,73084.0,-5.63,-6.55,-6.55,0,*50
1486048069.52,51986,8.94,73082.5,-5.61,-6.55,-6.47,0,*52
1486048070.72,51987,8.94,73082.3,-5.63,-6.47,-6.55,0,*51
1486048071.92,51988,8.94,73086.5,-5.63,-6.55,-6.55,0,*5D
1486048073.12,51989,8.94,73092.0,-5.63,-6.47,-6.47,0,*5C
1486048074.32,51990,8.94,73078.5,-5.63,-6.47,-6.47,0,*54
1486048075.54,51991,8.94,73060.5,-5.61,-6.39,-6.39,0,*57
1486048076.74,51992,8.94,73052.3,-5.63,-6.39,-6.43,0,*5B
1486048077.93,51993,8.94,73056.5,-5.63,-6.55,-6.69,0,*58
1486048079.18,51994,8.94,73070.8,-5.63,-6.93,-6.93,0,*50
1486048080.46,51995,8.94,73082.0,-5.61,-6.93,-6.93,0,*53
1486048081.71,51996,8.94,73080.8,-5.63,-6.93,-6.93,0,*52
1486048082.93,51997,8.94,73084.3,-5.65,-6.85,-6.85,0,*55
1486048084.18,51998,8.94,73098.0,-5.65,-6.85,-6.97,0,*59
1486048085.42,51999,8.94,73090.8,-5.65,-6.63,-6.51,0,*5A
1486048086.64,52000,8.94,73094.8,-5.65,-6.59,-6.59,0,*51
1486048087.92,52001,8.94,73078.0,-5.65,-6.23,-6.19,0,*59
1486048089.12,52002,8.94,73080.0,-5.67,-6.35,-6.43,0,*50
1486048090.34,52003,8.94,73078.3,-5.65,-6.35,-6.35,0,*52
1486048091.57,52004,8.94,73074.0,-5.65,-6.47,-6.51,0,*52
1486048092.79,52005,8.94,73044.0,-5.65,-6.73,-6.73,0,*54
1486048094.02,52006,8.94,73044.5,-5.67,-7.39,-7.39,0,*55
1486048095.24,52007,8.94,73056.0,-5.67,-7.57,-7.53,0,*50
1486048096.49,52008,8.94,73066.0,-5.67,-6.97,-7.01,0,*55
1486048097.69,52009,8.94,73064.8,-5.67,-6.31,-6.31,0,*5A
1486048098.93,52010,8.94,73058.8,-5.67,-6.23,-6.23,0,*52
1486048100.18,52011,8.94,73056.8,-5.65,-6.19,-6.09,0,*50
1486048101.4,52012,8.94,73054.8,-5.67,-5.93,-5.97,0,*54
1486048102.59,52013,8.94,73048.0,-5.67,-6.05,-6.05,0,*51
1486048103.84,52014,8.94,73054.8,-5.65,-6.09,-6.19,0,*55
1486048105.06,52015,8.94,73054.5,-5.65,-6.43,-6.35,0,*54
1486048106.31,52016,8.94,73062.0,-5.65,-6.59,-6.63,0,*5F
1486048107.51,52017,8.94,73056.3,-5.67,-6.59,-6.51,0,*5D
1486048108.71,52018,8.94,73054.3,-5.67,-6.51,-6.59,0,*52
1486048109.93,52019,8.94,73056.5,-5.65,-6.47,-6.51,0,*5E
1486048111.2,52020,8.94,73050.5,-5.65,-6.23,-6.23,0,*53
1486048112.4,52021,8.94,73046.5,-5.67,-6.43,-6.31,0,*55
1486048113.63,52022,8.94,73042.8,-5.65,-6.35,-6.35,0,*51
1486048114.84,52023,8.94,73048.0,-5.67,-6.31,-6.23,0,*51
1486048116.09,52024,8.94,73046.3,-5.65,-6.31,-6.23,0,*54